Regional Weather Roundup
Issued by NWS

Home | Current Version | Previous Version | Graphics & Text | Print | Product List | Glossary On
Versions: 1 2 3 4 5 6 7 8 9 10 11 12 13 14 15 16 17 18 19 20 21 22 23 24 25 26 27 28 29 30 31 32 33 34 35 36 37 38 39 40 41 42 43 44 45 46 47 48 49 50
000
ASUS43 KMKX 250321
RWRWI

WISCONSIN REGIONAL WEATHER ROUNDUP
NATIONAL WEATHER SERVICE MILWAUKEE/SULLIVAN WI
1000 PM CDT SAT JUN 24 2017

NOTE: "FAIR" INDICATES FEW OR NO CLOUDS BELOW 12,000 FEET WITH NO
SIGNIFICANT WEATHER AND/OR OBSTRUCTIONS TO VISIBILITY.

WIZ001-002-006>008-014>016-023>028-250400-
NORTHWEST WISCONSIN

CITY           SKY/WX    TMP DP  RH WIND       PRES   REMARKS
SUPERIOR ARPT  NOT AVBL
ASHLAND        CLOUDY    56  48  74 W7        29.97R
HAYWARD        LGT RAIN  56  48  74 VRB3      30.01R
SIREN          MOCLDY    54  46  74 CALM      30.03R
CUMBERLAND     PTCLDY    52  45  76 W8        30.03R
RICE LAKE      PTCLDY    56  46  69 W6        30.04R
CHETEK         PTCLDY    55  48  75 NW5       30.03R
LADYSMITH      MOCLDY    56  48  74 W6        30.02R
EAU CLAIRE     CLEAR     53  48  83 W7        30.02R
MENOMONIE      PTCLDY    56  45  66 W8        30.04R
NEW RICHMOND   CLOUDY    56  46  71 NW8       30.06R
OSCEOLA        PTCLDY    56  48  75 W6        30.08R
$$

WIZ003>005-009-010-017-018-250400-
NORTH CENTRAL WISCONSIN

CITY           SKY/WX    TMP DP  RH WIND       PRES   REMARKS
MANITOWISH WTR CLOUDY    52  52 100 W3        29.96R
ARBOR VITAE    CLOUDY    55  51  88 CALM      29.96R
WOODRUFF       CLOUDY    55  51  88 CALM      29.96R
RHINELANDER    CLOUDY    50  50 100 W6        29.97R
EAGLE RIVER    CLOUDY    51  51  98 CALM      29.95R
LAND O LAKES   RAIN      52  51  95 NW5       29.97R
PHILLIPS       MOCLDY    52  48  86 W3        29.98R
TOMAHAWK       NOT AVBL
MEDFORD        CLOUDY    51  46  83 SW5       30.00R
MERRILL        LGT RAIN  52  50  93 W6        30.00R
$$

WIZ029-030-035-036-043>047-250400-
CENTRAL WISCONSIN

CITY           SKY/WX    TMP DP  RH WIND       PRES   REMARKS
WAUSAU         CLOUDY    54  47  77 W9        29.99R
MOSINEE        MOCLDY    55  45  67 NW6       30.01R
MARSHFIELD     PTCLDY    52  45  77 W7        30.01R
STEVENS POINT  CLOUDY    53  46  76 W8        30.01R
WAUPACA        CLOUDY    55  51  86 SW7       30.00R
WAUTOMA        CLOUDY    54  45  71 W9        30.02R
WISC RAPIDS    MOCLDY    55  44  66 W8        30.02R
CAMP DOUGLAS   CLEAR     47  46  95 W5        30.03R
$$

WIZ011>013-019>022-031-037>040-048>050-250400-
NORTHEAST WISCONSIN

CITY           SKY/WX    TMP DP  RH WIND       PRES   REMARKS
ANTIGO         CLOUDY    53  47  80 W7        29.98R
SHAWANO        CLOUDY    60  46  60 W3        29.96R
OCONTO         CLOUDY    51  50  97 CALM      29.95S
STURGEON BAY   TSTM      55  51  86 NE5         N/A
GREEN BAY      CLOUDY    61  49  64 W10G22    29.95R
MANITOWOC      PTCLDY    61  44  53 W17G24    29.96R
APPLETON       LGT RAIN  54  45  71 W9        29.97R
CLINTONVILLE   CLOUDY    57  45  62 SW6       29.97R
OSHKOSH        CLOUDY    56  46  69 W8        29.98R
$$

WIZ032>034-041-042-053>061-250400-
SOUTHWEST WISCONSIN

CITY           SKY/WX    TMP DP  RH WIND       PRES   REMARKS
LA CROSSE      CLEAR     58  51  78 S7        30.05R
SPARTA         CLEAR     49  49  98 W3        30.05S
VIROQUA        CLEAR     50  48  93 SW6       30.06R
BOSCOBEL       CLEAR     54  52  93 S3        30.08R
PRAIRIE DU CHI CLEAR     55  52  92 CALM      30.08R
PLATTEVILLE    CLEAR     54  54 100 SW5       30.09R
$$

WIZ056-057-062-063-064-067-068-250400-
SOUTH CENTRAL WISCONSIN

CITY           SKY/WX    TMP DP  RH WIND       PRES   REMARKS
REEDSBURG      CLEAR     50  48  94 SW5       30.05R
BARABOO/DELLS  CLEAR     49  46  90 SW3       30.05R
LONE ROCK      CLEAR     54  49  83 CALM      30.06R
MINERAL POINT  CLEAR     54  54 100 CALM      30.07S
MADISON        PTCLDY    55  51  86 VRB5      30.04R
MIDDLETON      CLEAR     52  52 100 W6        30.05R
WATERTOWN      PTCLDY    53  53  99 SW6       30.03R
MONROE         PTCLDY    54  50  87 W7        30.07R
JANESVILLE     MOCLDY    55  55 100 CALM      30.05S
$$

WIZ051-052-058>065-066-070>072-250400-
SOUTHEAST WISCONSIN

CITY           SKY/WX    TMP DP  RH WIND       PRES   REMARKS
MILWAUKEE      MOCLDY    59  50  72 SW10      30.00S
WAUKESHA       NOT AVBL
MILWAUKEE/TIMM PTCLDY    55  43  62 W9        30.02F
RACINE         LGT RAIN  57  48  72 NW6G17    30.03S
KENOSHA        CLOUDY    57  49  74 W6        30.05R
FOND DU LAC    MOCLDY    57  45  64 W8        30.00R
SHEBOYGAN      CLOUDY    60  45  57 W14       29.98R
WEST BEND      CLOUDY    57  43  58 W9        30.01R
JUNEAU         PTCLDY    51  47  87 SW5       30.03R
$$

LSZ147-162-250400-
LAKE SUPERIOR

STATION/POSITION TIME  TEMP    WIND        PRES    WAVE
                       AIR SEA DIR/SP/G            HT/PER
                 (UTC) (F)     (DEG/KT/KT) (MB)    (FT/S)
W MID LAKE BUOY  0250   44 39  300/  4/  6 1014.2R   1/ 4
DEVILS ISLAND    0300   56     290/ 13/ 14 1014.4R
SAXON HARBOR     0240   58     230/  3/  6 1013.9R
$$

LMZ867-665-643>646-250400-
LAKE MICHIGAN

STATION/POSITION TIME  TEMP    WIND        PRES    WAVE
                       AIR SEA DIR/SP/G            HT/PER
                 (UTC) (F)     (DEG/KT/KT) (MB)    (FT/S)
CHAMBERS ISLAND  0230   58     220/  7/ 11 1013.9R
S GREEN BAY BUOY 0300   60     360/ 10/ 14 1014.1
N MID LAKE BUOY  0250   58 57  240/  4/  6 1013.9R   1/ 3
NORTHPORT PIER   0240   58     270/  3/  5 1013.9R
KEWAUNEE LAKESHO 0254   58      30/  3/  6 1013.8R
SHEBOYGAN LAKESH 0300   62     270/ 17/ 21 1014.8R
PORT WASHINGTON  0240   63     250/  6/ 19 1016.3R
ATWATER BUOY     0209   62 56  260/ 17/ 21 1016.4R
MILWAUKEE LAKESH 0300   60     260/  9/ 12   N/A
S MID LAKE BUOY  0250   63 62  310/ 17/ 19 1016.2R   2/ 4
KENOSHA   LAKESH 0300   60     270/  7/ 11 1017.3
$$

TC  - TEMPERATURE IN CELSIUS
VSB - VISIBILITY IN STATUTE MILES
WCI - WIND CHILL INDEX
HX  - HEAT INDEX




USA.gov is the U.S. government's official web portal to all federal, state and local government web resources and services.